Regional Weather Roundup
Issued by NWS

Home | Current Version | Previous Version | Graphics & Text | Print | Product List | Glossary On
Versions: 1 2 3 4 5 6 7 8 9 10 11 12 13 14 15 16 17 18 19 20 21 22 23 24 25 26 27 28 29 30 31 32 33 34 35 36 37 38 39 40 41 42 43 44 45 46 47 48 49 50
000
ASUS43 KLSX 220859
RWRMO

WEATHER SUMMARY FOR MISSOURI
NATIONAL WEATHER SERVICE SPRINGFIELD MO
400 AM CDT THU JUN 22 2017

NOTE: "FAIR" INDICATES FEW OR NO CLOUDS BELOW 12,000 FEET WITH NO
       SIGNIFICANT WEATHER AND/OR OBSTRUCTIONS TO VISIBILITY.
       CURRENT SKY AND/OR WEATHER CONDITIONS ARE NOT AVAILABLE FOR
       CHILLICOTHE AND FARMINGTON.

MOZ001>031-035>038-043-044-053-054-221000-
...NORTHERN AND WESTERN MISSOURI...

CITY           SKY/WX    TMP DP  RH WIND       PRES   REMARKS
KANSAS CTY INT MOCLDY    73  63  70 S14       29.82F
KANSAS C DTWN  CLOUDY    75  63  66 S8        29.81F
LEE`S SUMMIT   PTCLDY    73  66  78 S12       29.84F
ST JOSEPH      PTCLDY    75  66  73 S13       29.79F
CHILLICOTHE      N/A     73  65  75 S7        29.84S
KIRKSVILLE     CLEAR     72  65  78 S9        29.84F

$$
MOZ066>068-077>081-088>096-101>105-221000-
...SOUTHWEST MISSOURI...

CITY           SKY/WX    TMP DP  RH WIND       PRES   REMARKS
SPRINGFIELD    CLOUDY    72  68  87 SE8       29.88S
JOPLIN         CLEAR     69  66  90 SE7       29.85F

$$
MOZ032>034-039>042-045>050-055>058-069>072-221000-
...CENTRAL MISSOURI...

CITY           SKY/WX    TMP DP  RH WIND       PRES   REMARKS
COLUMBIA       CLEAR     70  67  90 SE8       29.87F
JEFFERSON CITY CLOUDY    72  67  84 E5        29.87F
ROLLA          CLEAR     67  66  97 S5        29.90F
SEDALIA        PTCLDY    70  68  93 S8        29.86F
WARRENSBURG    PTCLDY    68  63  83 S5        29.85S
OSAGE BEACH    CLOUDY    68  66  93 CALM      29.89F

$$
MOZ051-052-059>065-221000-
...EAST CENTRAL MISSOURI...

CITY           SKY/WX    TMP DP  RH WIND       PRES   REMARKS
ST LOUIS INTL  MOCLDY    77  67  71 S7        29.90F
SPIRIT OF STL  PTCLDY    74  68  81 CALM      29.89F
ST CHARLES     PTCLDY    74  69  85 S9        29.88F

$$
MOZ072>076-082>087-097>100-106>115-221000-
...SOUTH CENTRAL AND SOUTHEAST MISSOURI...

CITY           SKY/WX    TMP DP  RH WIND       PRES   REMARKS
CAPE GIRARDEAU LGT RAIN  73  69  87 SE3       29.93S
FARMINGTON     CLOUDY    71  68  90 SE5       29.94F
POPLAR BLUFF   CLOUDY    74  71  91 SE5       29.90S
WEST PLAINS    CLOUDY    72  68  87 E7        29.92S FOG

$$




USA.gov is the U.S. government's official web portal to all federal, state and local government web resources and services.